Home > Weather > Farsund > Past weeks

Flag for Norway Weather for the Past 2 Weeks in Farsund, Norway

Now
45 °F

Passing clouds.


Feels Like: 45 °F
Forecast: 43 / 47 °F
Wind: 1 mph from Northwest

Location: Lista Fyr

Current Time: May 1, 2016 at 8:50:11 AM

Latest Report: May 1, 2016 at 8:00 AM


Visibility: 16 mi

Pressure: 30.28 "Hg

Humidity: 78%

Dew Point: 38 °F

Location of FarsundLocation

Historic Weather in Farsund — Graph

°F

Farsund Temperature Yesterday

Maximum temperature yesterday: 46 °F (at 1:00 PM)
Minimum temperature yesterday: 42 °F (at 2:00 PM)
Average temperature yesterday: 44 °F

High & Low Weather Summary for the Past Weeks

 TemperatureHumidityPressure
High50 °F (Apr 27, 12:00 PM)100% (Apr 28, 10:00 PM)30.35 "Hg (Apr 28, 10:00 PM)
Low34 °F (Apr 24, 6:00 AM)37% (Apr 27, 12:00 PM)29.38 "Hg (Apr 16, 4:00 PM)
Average43 °F72%29.82 "Hg
* Reported Apr 16 6:00 AM — May 1 6:00 AM, Farsund, Weather by CustomWeather, © 2016

Note: Actual official high and low records may vary slightly from our data, if they occured in-between our weather recording intervals... More about our weather records

Advertising

Farsund Weather History for the Previous 24 Hours

Scroll right to see more
 ConditionsComfort  
Time TempWeatherWind HumidityBarometerVisibility
6:00 AM
Sun, May 1
42 °FQuite cool.5 mph81%30.25 "HgN/A
5:00 AM43 °FQuite cool.5 mph80%30.23 "HgN/A
4:00 AM43 °FQuite cool.6 mph87%30.22 "HgN/A
3:00 AM43 °FQuite cool.7 mph86%30.20 "HgN/A
2:00 AM42 °FQuite cool.3 mph88%30.18 "HgN/A
1:00 AM43 °FQuite cool.3 mph87%30.17 "HgN/A
12:00 AM43 °FQuite cool.5 mph85%30.16 "HgN/A
11:00 PM
Sat, Apr 30
43 °FQuite cool.5 mph86%30.14 "HgN/A
10:00 PM43 °FQuite cool.6 mph83%30.12 "HgN/A
9:00 PM44 °FQuite cool.6 mph83%30.09 "HgN/A
8:00 PM45 °FCool.6 mph79%30.06 "HgN/A
7:00 PM46 °FCool.7 mph78%30.03 "HgN/A
6:00 PM46 °FCool.8 mph78%30.01 "HgN/A
5:00 PM45 °FCool.8 mph81%29.97 "HgN/A
4:00 PM42 °FQuite cool.8 mph88%29.96 "HgN/A
3:00 PM46 °FCool.9 mph85%29.94 "HgN/A
2:00 PM42 °FSprinkles. Overcast.12 mph84%29.93 "Hg3 mi
1:00 PM46 °FCool.9 mph85%29.91 "HgN/A
Weather by CustomWeather, © 2016

See weather overviewHow to use our weather pages